• In Österreich
  • Länderverzeichnis
  • Für 7 Tage
  • Wassertemperatur
  • Satellitenkarten
  • Wetterkarte
  • News
  • Widgets
  • user-avatar
    Anmelden

    Stündliche Wetter Hvorostevo

    Heute, 25 September, Dienstag

    Zeit Temperatur Niederschläge Wind Luftdruck Luftfeuchtigkeit
    00:00 +6°C° 0.2 mm 5 m/S 730 mmHg 92%
    01:00 +6°C° 0.2 mm 5 m/S 731 mmHg 91%
    02:00 +5°C° 0.2 mm 6 m/S 731 mmHg 90%
    03:00 +5°C° 0 mm 5 m/S 732 mmHg 90%
    04:00 +3°C° 0 mm 5 m/S 733 mmHg 91%
    05:00 +3°C° 0 mm 5 m/S 733 mmHg 91%
    06:00 +3°C° 0 mm 5 m/S 734 mmHg 89%
    07:00 +3°C° 0 mm 5 m/S 735 mmHg 88%
    08:00 +5°C° 0 mm 5 m/S 736 mmHg 86%
    09:00 +5°C° 0 mm 5 m/S 736 mmHg 82%
    10:00 +6°C° 0 mm 5 m/S 737 mmHg 78%
    11:00 +7°C° 0 mm 5 m/S 738 mmHg 74%
    12:00 +7°C° 0.1 mm 5 m/S 738 mmHg 69%
    13:00 +8°C° 0.1 mm 6 m/S 739 mmHg 65%
    14:00 +8°C° 0.1 mm 6 m/S 739 mmHg 60%
    15:00 +8°C° 0.1 mm 5 m/S 740 mmHg 63%
    16:00 +7°C° 0.1 mm 5 m/S 741 mmHg 67%
    17:00 +6°C° 0.1 mm 4 m/S 741 mmHg 70%
    18:00 +5°C° 0 mm 4 m/S 742 mmHg 73%
    19:00 +4°C° 0 mm 4 m/S 743 mmHg 75%
    20:00 +3°C° 0 mm 4 m/S 743 mmHg 77%
    21:00 +3°C° 0 mm 4 m/S 744 mmHg 76%
    22:00 +3°C° 0 mm 4 m/S 745 mmHg 76%
    23:00 +1°C° 0 mm 4 m/S 745 mmHg 75%

    Morgen, 26 September, Mittwoch

    Zeit Temperatur Niederschläge Wind Luftdruck Luftfeuchtigkeit
    00:00 +2°C° 0 mm 3 m/S 746 mmHg 76%
    01:00 +1°C° 0 mm 3 m/S 746 mmHg 77%
    02:00 +1°C° 0 mm 3 m/S 747 mmHg 78%
    03:00 +1°C° 0 mm 3 m/S 747 mmHg 81%
    04:00 +2°C° 0 mm 2 m/S 748 mmHg 83%
    05:00 +1°C° 0 mm 2 m/S 748 mmHg 86%
    06:00 +1°C° 0 mm 3 m/S 748 mmHg 84%
    07:00 +2°C° 0 mm 3 m/S 749 mmHg 83%
    08:00 +3°C° 0 mm 3 m/S 749 mmHg 81%
    09:00 +5°C° 0 mm 3 m/S 749 mmHg 73%
    10:00 +7°C° 0 mm 4 m/S 748 mmHg 64%
    11:00 +10°C° 0 mm 4 m/S 748 mmHg 56%
    12:00 +10°C° 0 mm 4 m/S 748 mmHg 54%
    13:00 +10°C° 0 mm 5 m/S 747 mmHg 51%
    14:00 +10°C° 0 mm 5 m/S 746 mmHg 49%
    15:00 +9°C° 0 mm 5 m/S 746 mmHg 55%
    16:00 +9°C° 0 mm 5 m/S 745 mmHg 61%
    17:00 +8°C° 0 mm 5 m/S 744 mmHg 67%
    18:00 +7°C° 0.8 mm 6 m/S 743 mmHg 73%
    19:00 +5°C° 0.8 mm 6 m/S 742 mmHg 80%
    20:00 +5°C° 0.8 mm 7 m/S 741 mmHg 87%
    21:00 +5°C° 1.7 mm 7 m/S 740 mmHg 88%
    22:00 +5°C° 1.7 mm 7 m/S 738 mmHg 89%
    23:00 +5°C° 1.7 mm 8 m/S 737 mmHg 90%

    übermorgen, 27 September, Donnerstag

    Zeit Temperatur Niederschläge Wind Luftdruck Luftfeuchtigkeit
    00:00 +5°C° 0.9 mm 8 m/S 736 mmHg 90%
    01:00 +6°C° 0.9 mm 7 m/S 735 mmHg 90%
    02:00 +6°C° 0.9 mm 7 m/S 735 mmHg 91%
    03:00 +7°C° 1.2 mm 6 m/S 734 mmHg 91%
    04:00 +7°C° 1.2 mm 6 m/S 734 mmHg 92%
    05:00 +8°C° 1.2 mm 5 m/S 734 mmHg 93%
    06:00 +8°C° 0.1 mm 5 m/S 734 mmHg 90%
    07:00 +8°C° 0.1 mm 5 m/S 735 mmHg 87%
    08:00 +8°C° 0.1 mm 4 m/S 735 mmHg 84%
    09:00 +8°C° 0 mm 5 m/S 735 mmHg 76%
    10:00 +9°C° 0 mm 6 m/S 736 mmHg 69%
    11:00 +10°C° 0 mm 6 m/S 736 mmHg 61%
    12:00 +10°C° 0 mm 6 m/S 736 mmHg 58%
    13:00 +10°C° 0 mm 6 m/S 736 mmHg 54%
    14:00 +11°C° 0 mm 6 m/S 737 mmHg 51%
    15:00 +10°C° 0 mm 5 m/S 737 mmHg 56%
    16:00 +10°C° 0 mm 4 m/S 737 mmHg 60%
    17:00 +9°C° 0 mm 3 m/S 737 mmHg 65%
    18:00 +8°C° 0 mm 3 m/S 738 mmHg 67%
    19:00 +8°C° 0 mm 3 m/S 738 mmHg 69%
    20:00 +7°C° 0 mm 3 m/S 738 mmHg 72%
    21:00 +5°C° 0 mm 3 m/S 738 mmHg 74%
    22:00 +5°C° 0 mm 3 m/S 739 mmHg 76%
    23:00 +5°C° 0 mm 2 m/S 739 mmHg 78%

    28 September, Freitag

    Zeit Temperatur Niederschläge Wind Luftdruck Luftfeuchtigkeit
    00:00 +5°C° 0 mm 2 m/S 738 mmHg 79%
    01:00 +5°C° 0 mm 2 m/S 738 mmHg 80%
    02:00 +5°C° 0 mm 2 m/S 737 mmHg 81%
    03:00 +5°C° 1.2 mm 3 m/S 735 mmHg 85%
    04:00 +6°C° 1.2 mm 5 m/S 734 mmHg 88%
    05:00 +7°C° 1.2 mm 6 m/S 732 mmHg 92%
    06:00 +8°C° 1.5 mm 6 m/S 731 mmHg 91%
    07:00 +10°C° 1.5 mm 7 m/S 730 mmHg 90%
    08:00 +11°C° 1.5 mm 8 m/S 729 mmHg 89%
    09:00 +10°C° 1.2 mm 7 m/S 730 mmHg 89%
    10:00 +9°C° 1.2 mm 6 m/S 731 mmHg 89%
    11:00 +8°C° 1.2 mm 6 m/S 731 mmHg 89%
    12:00 +7°C° 0.1 mm 5 m/S 733 mmHg 87%
    13:00 +6°C° 0.1 mm 5 m/S 734 mmHg 85%
    14:00 +6°C° 0.1 mm 5 m/S 736 mmHg 83%
    15:00 +5°C° 0.1 mm 4 m/S 737 mmHg 83%
    16:00 +5°C° 0.1 mm 3 m/S 738 mmHg 82%
    17:00 +5°C° 0.1 mm 3 m/S 739 mmHg 82%
    18:00 +5°C° 0 mm 2 m/S 740 mmHg 85%
    19:00 +4°C° 0 mm 2 m/S 740 mmHg 87%
    20:00 +4°C° 0 mm 1 m/S 741 mmHg 90%
    21:00 +4°C° 0 mm 1 m/S 741 mmHg 91%
    22:00 +2°C° 0 mm 2 m/S 741 mmHg 92%
    23:00 +2°C° 0 mm 2 m/S 741 mmHg 93%

    29 September, Samstag

    Zeit Temperatur Niederschläge Wind Luftdruck Luftfeuchtigkeit
    00:00 +2°C° 0 mm 2 m/S 742 mmHg 93%
    01:00 +3°C° 0 mm 2 m/S 742 mmHg 93%
    02:00 +2°C° 0 mm 3 m/S 742 mmHg 93%
    03:00 +2°C° 0 mm 3 m/S 742 mmHg 93%
    04:00 +2°C° 0 mm 3 m/S 742 mmHg 93%
    05:00 +3°C° 0 mm 3 m/S 742 mmHg 93%
    06:00 +3°C° 0 mm 3 m/S 743 mmHg 92%
    07:00 +4°C° 0 mm 3 m/S 743 mmHg 91%
    08:00 +4°C° 0 mm 3 m/S 744 mmHg 89%
    09:00 +5°C° 0 mm 3 m/S 744 mmHg 81%
    10:00 +6°C° 0 mm 2 m/S 745 mmHg 74%
    11:00 +7°C° 0 mm 2 m/S 745 mmHg 66%
    12:00 +7°C° 0 mm 2 m/S 745 mmHg 60%
    13:00 +8°C° 0 mm 2 m/S 745 mmHg 54%
    14:00 +8°C° 0 mm 2 m/S 746 mmHg 48%
    15:00 +7°C° 0 mm 2 m/S 746 mmHg 53%
    16:00 +7°C° 0 mm 1 m/S 746 mmHg 59%
    17:00 +6°C° 0 mm 1 m/S 746 mmHg 64%
    18:00 +5°C° 0 mm 1 m/S 747 mmHg 68%
    19:00 +4°C° 0 mm 1 m/S 747 mmHg 71%
    20:00 +3°C° 0 mm 1 m/S 748 mmHg 74%
    21:00 +3°C° 0 mm 1 m/S 748 mmHg 75%
    22:00 +3°C° 0 mm 1 m/S 748 mmHg 77%
    23:00 +2°C° 0 mm 1 m/S 748 mmHg 78%

    30 September, Sonntag

    Zeit Temperatur Niederschläge Wind Luftdruck Luftfeuchtigkeit
    00:00 +2°C° 0 mm 1 m/S 748 mmHg 78%
    01:00 +1°C° 0 mm 2 m/S 748 mmHg 79%
    02:00 +1°C° 0 mm 2 m/S 748 mmHg 80%
    03:00 +1°C° 0 mm 2 m/S 748 mmHg 80%
    04:00 -1°C° 0 mm 2 m/S 748 mmHg 80%
    05:00 -1°C° 0 mm 2 m/S 748 mmHg 80%
    06:00 +1°C° 0 mm 2 m/S 748 mmHg 75%
    07:00 +1°C° 0 mm 3 m/S 748 mmHg 71%
    08:00 +2°C° 0 mm 3 m/S 748 mmHg 67%
    09:00 +4°C° 0 mm 3 m/S 748 mmHg 63%
    10:00 +5°C° 0 mm 3 m/S 747 mmHg 59%
    11:00 +7°C° 0 mm 3 m/S 747 mmHg 55%
    12:00 +7°C° 0 mm 4 m/S 747 mmHg 53%
    13:00 +7°C° 0 mm 4 m/S 746 mmHg 51%
    14:00 +8°C° 0 mm 4 m/S 745 mmHg 49%
    15:00 +8°C° 0 mm 3 m/S 745 mmHg 54%
    16:00 +7°C° 0 mm 3 m/S 745 mmHg 60%
    17:00 +5°C° 0 mm 3 m/S 744 mmHg 65%
    18:00 +5°C° 0 mm 3 m/S 744 mmHg 69%
    19:00 +4°C° 0 mm 3 m/S 744 mmHg 74%
    20:00 +4°C° 0 mm 3 m/S 743 mmHg 78%
    21:00 +4°C° 0 mm 3 m/S 743 mmHg 80%
    22:00 +4°C° 0 mm 3 m/S 743 mmHg 82%
    23:00 +4°C° 0 mm 3 m/S 743 mmHg 85%
    Mehr zeigen